| time (UTC) | temp F | wind direction | speed MPH | gust MPH | rain 1hr in | rain 24hr in | rain mn in | humidity % | barometer mb |
| 20260503204514 | 67 | 22 | 1.0 | 6.0 | 0.00 | 0.00 | 0.00 | 37 | 1018.8 |
| 20260503204014 | 67 | 20 | 1.0 | 5.0 | 0.00 | 0.00 | 0.00 | 38 | 1018.8 |
| 20260503203515 | 67 | 3 | 1.0 | 4.0 | 0.00 | 0.00 | 0.00 | 36 | 1018.8 |
| 20260503203013 | 67 | 356 | 2.0 | 4.0 | 0.00 | 0.00 | 0.00 | 38 | 1018.9 |
| 20260503202514 | 67 | 356 | 1.0 | 4.0 | 0.00 | 0.00 | 0.00 | 35 | 1019.0 |
| 20260503202013 | 67 | 347 | 2.0 | 4.0 | 0.00 | 0.00 | 0.00 | 39 | 1019.1 |
| 20260503201513 | 67 | 23 | 0.0 | 7.0 | 0.00 | 0.00 | 0.00 | 39 | 1019.2 |
| 20260503201015 | 66 | 17 | 1.0 | 7.0 | 0.00 | 0.00 | 0.00 | 37 | 1019.2 |
| 20260503200514 | 66 | 15 | 4.0 | 6.0 | 0.00 | 0.00 | 0.00 | 40 | 1019.4 |
| 20260503200015 | 66 | 17 | 3.0 | 8.0 | 0.00 | 0.00 | 0.00 | 41 | 1019.4 |
| 20260503195514 | 65 | 17 | 4.0 | 8.0 | 0.00 | 0.00 | 0.00 | 39 | 1019.5 |
| 20260503195014 | 66 | 12 | 4.0 | 8.0 | 0.00 | 0.00 | 0.00 | 41 | 1019.6 |
| 20260503194013 | 65 | 8 | 2.0 | 7.0 | 0.00 | 0.00 | 0.00 | 39 | 1019.7 |
| 20260503193514 | 65 | 7 | 2.0 | 8.0 | 0.00 | 0.00 | 0.00 | 42 | 1020.0 |
| 20260503193014 | 64 | 9 | 4.0 | 8.0 | 0.00 | 0.00 | 0.00 | 41 | 1020.0 |
| 20260503192514 | 64 | 15 | 2.0 | 7.0 | 0.00 | 0.00 | 0.00 | 43 | 1020.2 |
| 20260503192015 | 64 | 18 | 3.0 | 6.0 | 0.00 | 0.00 | 0.00 | 39 | 1020.2 |
| 20260503191013 | 64 | 13 | 3.0 | 6.0 | 0.00 | 0.00 | 0.00 | 41 | 1020.2 |
| 20260503190513 | 64 | 358 | 3.0 | 7.0 | 0.00 | 0.00 | 0.00 | 43 | 1020.3 |
| 20260503190016 | 63 | 4 | 2.0 | 8.0 | 0.00 | 0.00 | 0.00 | 41 | 1020.3 |
| 20260503185514 | 63 | 8 | 5.0 | 8.0 | 0.00 | 0.00 | 0.00 | 38 | 1020.3 |
| 20260503185016 | 63 | 350 | 4.0 | 6.0 | 0.00 | 0.00 | 0.00 | 41 | 1020.5 |
| 20260503184513 | 63 | 296 | 0.0 | 6.0 | 0.00 | 0.00 | 0.00 | 42 | 1020.5 |
| 20260503183514 | 61 | 5 | 1.0 | 7.0 | 0.00 | 0.00 | 0.00 | 43 | 1020.7 |
| 20260503182514 | 61 | 5 | 3.0 | 7.0 | 0.00 | 0.00 | 0.00 | 41 | 1020.8 |
| 20260503182015 | 61 | 4 | 0.0 | 5.0 | 0.00 | 0.00 | 0.00 | 41 | 1020.9 |
| 20260503180516 | 61 | 40 | 1.0 | 5.0 | 0.00 | 0.00 | 0.00 | 43 | 1021.1 |
| 20260503175514 | 60 | 294 | 2.0 | 6.0 | 0.00 | 0.00 | 0.00 | 40 | 1021.2 |
| 20260503175013 | 61 | 331 | 3.0 | 6.0 | 0.00 | 0.00 | 0.00 | 42 | 1021.3 |
| 20260503174514 | 61 | 8 | 1.0 | 5.0 | 0.00 | 0.00 | 0.00 | 41 | 1021.3 |
| 20260503173514 | 62 | 9 | 1.0 | 6.0 | 0.00 | 0.00 | 0.00 | 45 | 1021.4 |
| 20260503173017 | 61 | 194 | 1.0 | 7.0 | 0.00 | 0.00 | 0.00 | 43 | 1021.4 |
| 20260503172514 | 61 | 198 | 0.0 | 7.0 | 0.00 | 0.00 | 0.00 | 42 | 1021.5 |
| 20260503172014 | 61 | 190 | 1.0 | 4.0 | 0.00 | 0.00 | 0.00 | 43 | 1021.6 |
| 20260503171513 | 61 | 179 | 1.0 | 4.0 | 0.00 | 0.00 | 0.00 | 41 | 1021.8 |
| 20260503170516 | 60 | 61 | 1.0 | 4.0 | 0.00 | 0.00 | 0.00 | 49 | 1021.9 |
| 20260503151014 | 52 | 24 | 3.0 | 10.0 | 0.00 | 0.00 | 0.00 | 53 | 1022.9 |
| 20260503150515 | 52 | 25 | 3.0 | 8.0 | 0.00 | 0.00 | 0.00 | 55 | 1023.0 |
| 20260503131012 | 43 | 5 | 2.0 | 5.0 | 0.00 | 0.00 | 0.00 | 84 | 1022.7 |
| 20260503130513 | 42 | 0 | 0.0 | 2.0 | 0.00 | 0.00 | 0.00 | 88 | 1022.8 |
| 20260503110518 | 34 | 0 | 0.0 | 0.0 | 0.00 | 0.00 | 0.00 | 92 | 1021.7 |
| 20260503100119 | 35 | 0 | 0.0 | 0.0 | 0.00 | 0.00 | 0.00 | 89 | 1020.7 |
| 20260503081513 | 37 | 0 | 0.0 | 0.0 | 0.00 | 0.00 | 0.00 | 84 | 1019.8 |
| 20260503081014 | 37 | 0 | 0.0 | 0.0 | 0.00 | 0.00 | 0.00 | 85 | 1019.7 |
| 20260503072515 | 39 | 0 | 0.0 | 0.0 | 0.00 | 0.00 | 0.00 | 81 | 1019.4 |
| 20260503072013 | 39 | 0 | 0.0 | 0.0 | 0.00 | 0.00 | 0.00 | 81 | 1019.3 |
| 20260503071513 | 39 | 0 | 0.0 | 0.0 | 0.00 | 0.00 | 0.00 | 80 | 1019.2 |
| 20260503071013 | 40 | 0 | 0.0 | 0.0 | 0.00 | 0.00 | 0.00 | 79 | 1019.1 |
| 20260503070513 | 40 | 0 | 0.0 | 0.0 | 0.00 | 0.00 | 0.00 | 78 | 1019.1 |
| 20260503055014 | 40 | 0 | 0.0 | 0.0 | 0.00 | 0.00 | 0.00 | 77 | 1019.2 |
| 20260503054515 | 41 | 0 | 0.0 | 0.0 | 0.00 | 0.00 | 0.00 | 76 | 1019.2 |
| 20260503054013 | 41 | 0 | 0.0 | 0.0 | 0.00 | 0.00 | 0.00 | 75 | 1019.2 |
| 20260503053513 | 41 | 0 | 0.0 | 0.0 | 0.00 | 0.00 | 0.00 | 75 | 1019.2 |
| 20260503053013 | 41 | 0 | 0.0 | 0.0 | 0.00 | 0.00 | 0.00 | 74 | 1019.2 |
| 20260503052513 | 42 | 0 | 0.0 | 0.0 | 0.00 | 0.00 | 0.00 | 73 | 1019.2 |
| 20260503052013 | 42 | 0 | 0.0 | 0.0 | 0.00 | 0.00 | 0.00 | 72 | 1019.1 |
| 20260503051512 | 42 | 0 | 0.0 | 0.0 | 0.00 | 0.00 | 0.00 | 71 | 1019.1 |
| 20260503051013 | 43 | 0 | 0.0 | 0.0 | 0.00 | 0.00 | 0.00 | 70 | 1019.1 |
| 20260503050515 | 43 | 0 | 0.0 | 0.0 | 0.00 | 0.00 | 0.00 | 69 | 1019.1 |
| 20260503050016 | 44 | 0 | 0.0 | 0.0 | 0.00 | 0.00 | 0.00 | 67 | 1019.0 |
| 20260503045514 | 45 | 0 | 0.0 | 0.0 | 0.00 | 0.00 | 0.00 | 66 | 1019.1 |
| 20260503045013 | 45 | 0 | 0.0 | 0.0 | 0.00 | 0.00 | 0.00 | 65 | 1019.1 |
| 20260503044013 | 46 | 0 | 0.0 | 0.0 | 0.00 | 0.00 | 0.00 | 65 | 1019.0 |
| 20260503043513 | 46 | 0 | 0.0 | 0.0 | 0.00 | 0.00 | 0.00 | 64 | 1019.0 |
| 20260503043013 | 46 | 0 | 0.0 | 3.0 | 0.00 | 0.00 | 0.00 | 64 | 1019.0 |
| 20260503042513 | 46 | 15 | 0.0 | 3.0 | 0.00 | 0.00 | 0.00 | 64 | 1019.0 |
| 20260503042013 | 46 | 0 | 0.0 | 0.0 | 0.00 | 0.00 | 0.00 | 63 | 1018.9 |
| 20260503041013 | 46 | 0 | 0.0 | 0.0 | 0.00 | 0.00 | 0.00 | 63 | 1018.8 |
| 20260503040513 | 46 | 0 | 0.0 | 0.0 | 0.00 | 0.00 | 0.00 | 63 | 1018.7 |
| 20260503040029 | 46 | 0 | 0.0 | 0.0 | 0.00 | 0.00 | 0.00 | 63 | 1018.7 |
| 20260503035513 | 46 | 0 | 0.0 | 0.0 | 0.00 | 0.00 | 0.00 | 63 | 1018.6 |
| 20260503035016 | 46 | 0 | 0.0 | 0.0 | 0.00 | 0.00 | 0.00 | 63 | 1018.6 |
| 20260503034530 | 46 | 0 | 0.0 | 0.0 | 0.00 | 0.00 | 0.00 | 63 | 1018.5 |
| 20260503034014 | 46 | 0 | 0.0 | 0.0 | 0.00 | 0.00 | 0.00 | 63 | 1018.4 |
| 20260503033513 | 46 | 0 | 0.0 | 5.0 | 0.00 | 0.00 | 0.00 | 62 | 1018.4 |
| 20260503033014 | 47 | 9 | 0.0 | 5.0 | 0.00 | 0.00 | 0.00 | 62 | 1018.4 |
| 20260503032515 | 47 | 7 | 1.0 | 5.0 | 0.00 | 0.00 | 0.00 | 61 | 1018.3 |
| 20260503031513 | 47 | 7 | 4.0 | 6.0 | 0.00 | 0.00 | 0.00 | 60 | 1018.3 |
| 20260503031013 | 47 | 6 | 4.0 | 6.0 | 0.00 | 0.00 | 0.00 | 61 | 1018.2 |
| 20260503030514 | 47 | 7 | 3.0 | 5.0 | 0.00 | 0.00 | 0.00 | 61 | 1018.2 |
| 20260503030015 | 47 | 6 | 2.0 | 5.0 | 0.00 | 0.00 | 0.00 | 60 | 1018.2 |
| 20260503025514 | 47 | 6 | 3.0 | 6.0 | 0.00 | 0.00 | 0.00 | 60 | 1018.2 |
| 20260503025013 | 47 | 5 | 2.0 | 6.0 | 0.00 | 0.00 | 0.00 | 60 | 1018.2 |
| 20260503024513 | 47 | 0 | 0.0 | 0.0 | 0.00 | 0.00 | 0.00 | 60 | 1018.1 |
| 20260503024013 | 47 | 0 | 0.0 | 0.0 | 0.00 | 0.00 | 0.00 | 60 | 1018.1 |
| 20260503023514 | 47 | 0 | 0.0 | 0.0 | 0.00 | 0.00 | 0.00 | 59 | 1018.0 |
| 20260503023013 | 47 | 0 | 0.0 | 0.0 | 0.00 | 0.00 | 0.00 | 59 | 1017.9 |
| 20260503022515 | 48 | 0 | 0.0 | 0.0 | 0.00 | 0.00 | 0.00 | 58 | 1018.0 |
| 20260503021512 | 48 | 3 | 0.0 | 4.0 | 0.00 | 0.00 | 0.00 | 57 | 1017.8 |
| 20260503021013 | 48 | 0 | 0.0 | 3.0 | 0.00 | 0.00 | 0.00 | 57 | 1017.7 |
| 20260503020513 | 49 | 0 | 0.0 | 5.0 | 0.00 | 0.00 | 0.00 | 56 | 1017.7 |
| 20260503015513 | 49 | 14 | 3.0 | 6.0 | 0.00 | 0.00 | 0.00 | 55 | 1017.7 |
| 20260503015013 | 49 | 15 | 2.0 | 5.0 | 0.00 | 0.00 | 0.00 | 55 | 1017.7 |
| 20260503014514 | 50 | 12 | 3.0 | 5.0 | 0.00 | 0.00 | 0.00 | 54 | 1017.7 |
| 20260503014015 | 49 | 12 | 3.0 | 7.0 | 0.00 | 0.00 | 0.00 | 55 | 1017.6 |
| 20260503013512 | 50 | 11 | 3.0 | 7.0 | 0.00 | 0.00 | 0.00 | 54 | 1017.5 |
| 20260503013013 | 50 | 7 | 3.0 | 7.0 | 0.00 | 0.00 | 0.00 | 55 | 1017.5 |
| 20260503012513 | 50 | 6 | 3.0 | 7.0 | 0.00 | 0.00 | 0.00 | 54 | 1017.4 |
| 20260503012013 | 50 | 6 | 3.0 | 7.0 | 0.00 | 0.00 | 0.00 | 53 | 1017.4 |
| 20260503011516 | 50 | 3 | 2.0 | 10.0 | 0.00 | 0.00 | 0.00 | 53 | 1017.3 |
| 20260503011012 | 50 | 2 | 3.0 | 10.0 | 0.00 | 0.00 | 0.00 | 53 | 1017.1 |
| 20260503010513 | 51 | 5 | 4.0 | 12.0 | 0.00 | 0.00 | 0.00 | 52 | 1017.0 |
| 20260503010014 | 51 | 9 | 6.0 | 13.0 | 0.00 | 0.00 | 0.00 | 51 | 1016.9 |
| 20260503005513 | 51 | 10 | 6.0 | 13.0 | 0.00 | 0.00 | 0.00 | 51 | 1016.8 |
| 20260503005013 | 51 | 9 | 7.0 | 12.0 | 0.00 | 0.00 | 0.00 | 50 | 1016.6 |
| 20260503004512 | 52 | 11 | 6.0 | 10.0 | 0.00 | 0.00 | 0.00 | 50 | 1016.6 |
| 20260503004012 | 52 | 11 | 5.0 | 10.0 | 0.00 | 0.00 | 0.00 | 49 | 1016.5 |
| 20260503003513 | 52 | 11 | 6.0 | 12.0 | 0.00 | 0.00 | 0.00 | 49 | 1016.5 |
| 20260503003014 | 52 | 14 | 6.0 | 12.0 | 0.00 | 0.00 | 0.00 | 49 | 1016.4 |
| 20260503002515 | 52 | 11 | 4.0 | 10.0 | 0.00 | 0.00 | 0.00 | 48 | 1016.4 |
| 20260503002013 | 52 | 11 | 4.0 | 10.0 | 0.00 | 0.00 | 0.00 | 47 | 1016.3 |
| 20260503001513 | 53 | 12 | 5.0 | 10.0 | 0.00 | 0.00 | 0.00 | 47 | 1016.2 |
| 20260503001013 | 53 | 7 | 5.0 | 11.0 | 0.00 | 0.00 | 0.00 | 47 | 1016.1 |
| 20260503000014 | 54 | 11 | 6.0 | 15.0 | 0.00 | 0.00 | 0.00 | 45 | 1016.0 |
| 20260502235014 | 55 | 12 | 8.0 | 13.0 | 0.00 | 0.00 | 0.00 | 43 | 1015.7 |
| 20260502234516 | 55 | 10 | 8.0 | 13.0 | 0.00 | 0.00 | 0.00 | 43 | 1015.6 |
| 20260502234012 | 55 | 7 | 8.0 | 14.0 | 0.00 | 0.00 | 0.00 | 43 | 1015.5 |
| 20260502233513 | 56 | 8 | 7.0 | 14.0 | 0.00 | 0.00 | 0.00 | 42 | 1015.5 |
| 20260502233014 | 56 | 9 | 7.0 | 15.0 | 0.00 | 0.00 | 0.00 | 42 | 1015.5 |
| 20260502232513 | 56 | 8 | 7.0 | 15.0 | 0.00 | 0.00 | 0.00 | 42 | 1015.3 |
| 20260502232013 | 56 | 10 | 7.0 | 14.0 | 0.00 | 0.00 | 0.00 | 41 | 1015.3 |
| 20260502231513 | 56 | 11 | 8.0 | 16.0 | 0.00 | 0.00 | 0.00 | 40 | 1015.1 |
| 20260502231013 | 56 | 12 | 9.0 | 18.0 | 0.00 | 0.00 | 0.00 | 41 | 1015.2 |
| 20260502230016 | 57 | 9 | 10.0 | 14.0 | 0.00 | 0.00 | 0.00 | 41 | 1015.1 |
| 20260502225512 | 57 | 8 | 8.0 | 13.0 | 0.00 | 0.00 | 0.00 | 42 | 1015.1 |
| 20260502225016 | 56 | 10 | 6.0 | 13.0 | 0.00 | 0.00 | 0.00 | 43 | 1015.2 |
| 20260502224513 | 56 | 10 | 8.0 | 13.0 | 0.00 | 0.00 | 0.00 | 42 | 1015.3 |
| 20260502224014 | 56 | 10 | 4.0 | 15.0 | 0.00 | 0.00 | 0.00 | 44 | 1015.4 |
| 20260502223513 | 56 | 9 | 9.0 | 16.0 | 0.00 | 0.00 | 0.00 | 42 | 1015.2 |
| 20260502223013 | 56 | 6 | 10.0 | 16.0 | 0.00 | 0.00 | 0.00 | 41 | 1015.2 |
| 20260502222516 | 58 | 7 | 9.0 | 19.0 | 0.00 | 0.00 | 0.00 | 41 | 1015.1 |
| 20260502222013 | 58 | 10 | 10.0 | 19.0 | 0.00 | 0.00 | 0.00 | 40 | 1015.1 |
| 20260502221513 | 57 | 9 | 6.0 | 14.0 | 0.00 | 0.00 | 0.00 | 43 | 1015.1 |
| 20260502221014 | 57 | 12 | 7.0 | 17.0 | 0.00 | 0.00 | 0.00 | 41 | 1014.9 |
| 20260502220014 | 58 | 13 | 11.0 | 17.0 | 0.00 | 0.00 | 0.00 | 40 | 1014.8 |
| 20260502215014 | 58 | 14 | 7.0 | 14.0 | 0.00 | 0.00 | 0.00 | 41 | 1014.6 |
| 20260502214014 | 58 | 13 | 6.0 | 15.0 | 0.00 | 0.00 | 0.00 | 43 | 1014.4 |
| 20260502213513 | 58 | 17 | 6.0 | 17.0 | 0.00 | 0.00 | 0.00 | 41 | 1014.2 |
| 20260502213015 | 59 | 12 | 6.0 | 17.0 | 0.00 | 0.00 | 0.00 | 39 | 1014.3 |
| 20260502212513 | 59 | 10 | 7.0 | 18.0 | 0.00 | 0.00 | 0.00 | 40 | 1014.3 |
| 20260502212015 | 59 | 10 | 8.0 | 18.0 | 0.00 | 0.00 | 0.00 | 40 | 1014.3 |
| 20260502211512 | 59 | 17 | 7.0 | 18.0 | 0.00 | 0.00 | 0.00 | 41 | 1014.2 |
| 20260502210513 | 58 | 19 | 6.0 | 14.0 | 0.00 | 0.00 | 0.00 | 40 | 1014.1 |
| 20260502210013 | 58 | 11 | 7.0 | 14.0 | 0.00 | 0.00 | 0.00 | 42 | 1014.1 |
| 20260502205514 | 57 | 11 | 5.0 | 17.0 | 0.00 | 0.00 | 0.00 | 42 | 1014.1 |
| 20260502205014 | 58 | 11 | 9.0 | 18.0 | 0.00 | 0.00 | 0.00 | 39 | 1014.1 |